Weather History for Grand Canyon, AZ

Change the Weather History Date:

Friday, March 8, 2013

  Actual Average Record
Temperature  
Mean Temperature 34 °F -  
Max Temperature 42 °F 49 °F 66 °F (1989)
Min Temperature 26 °F 18 °F 1 °F (2011)
Degree Days  
Heating Degree Days 31    
Moisture  
Dew Point 28 °F    
Average Humidity 84    
Maximum Humidity 96    
Minimum Humidity 50    
Precipitation  
Precipitation 0.15 in - - ()
Sea Level Pressure  
Sea Level Pressure 29.76 in    
Wind  
Wind Speed 9 mph (SSW)    
Max Wind Speed 21 mph    
Max Gust Speed 37 mph    
Visibility 6 miles    
Events Fog , Rain , Snow    
Averages and records for this station are not official NWS values.
T = Trace of Precipitation, MM = Missing Value Source: NWS Daily Summary

Daily Weather History Graph

Daily Weather History Graph

Search for Another Location

Airport:

Trip Planner

Search our weather history database for the weather conditions in past years. The results will help you decide how hot, cold, wet, or windy it might be!

Date:

Astronomy

Mar. 08, 2013 Rise Set
Actual Time 6:48 AM MST 6:30 PM MST
Civil Twilight 6:23 AM MST 6:55 PM MST
Nautical Twilight 5:53 AM MST 7:25 PM MST
Astronomical Twilight 5:23 AM MST 7:55 PM MST
Moon 4:30 AM MST (3/8) 3:34 PM MST (3/8)
Length of Visible Light 12h 32m
Length of Day
11h 41m
Waning Crescent, 11% of the Moon is Illuminated
Mar 8
Waning Crescent
Mar 11
New
Mar 19
First Quarter
Mar 27
Full
Apr 2
Last Quarter

Hourly Weather History & Observations

Time (MST) Temp. Windchill Dew Point Humidity Pressure Visibility Wind Dir Wind Speed Gust Speed Precip Events Conditions
12:54 AM 35.1 °F 30.1 °F 19.9 °F 54% 29.80 in 10.0 mi SE 5.8 mph - N/A   Overcast
1:54 AM 37.0 °F 34.5 °F 21.0 °F 52% 29.77 in 10.0 mi South 3.5 mph - N/A   Scattered Clouds
2:54 AM 39.0 °F 35.7 °F 21.9 °F 50% 29.75 in 10.0 mi WSW 4.6 mph - N/A   Overcast
3:54 AM 36.0 °F 32.1 °F 27.0 °F 70% 29.76 in 10.0 mi SSW 4.6 mph - 0.00 in   Overcast
4:19 AM 33.8 °F 27.0 °F 28.4 °F 81% 29.89 in 4.0 mi SSW 8.1 mph - 0.00 in Snow Light Snow
4:29 AM 33.8 °F 26.4 °F 30.2 °F 87% 29.88 in 4.0 mi South 9.2 mph - 0.00 in Snow Light Snow
4:52 AM 33.8 °F 28.6 °F 30.2 °F 87% 29.88 in 8.0 mi South 5.8 mph - 0.00 in Snow Light Snow
5:54 AM 34.0 °F 31.0 °F 30.9 °F 89% 29.76 in 10.0 mi SSE 3.5 mph - 0.00 in   Overcast
6:29 AM 33.8 °F 29.6 °F 30.2 °F 87% 29.86 in 10.0 mi SE 4.6 mph - N/A   Overcast
6:35 AM 33.8 °F 27.7 °F 30.2 °F 87% 29.86 in 10.0 mi SSE 6.9 mph - N/A   Overcast
6:42 AM 33.8 °F 27.7 °F 30.2 °F 87% 29.86 in 10.0 mi SSE 6.9 mph - N/A   Overcast
6:52 AM 33.8 °F 28.6 °F 30.2 °F 87% 29.86 in 10.0 mi South 5.8 mph - N/A   Overcast
6:54 AM 34.0 °F 28.0 °F 30.0 °F 85% 29.77 in 10.0 mi South 6.9 mph - N/A   Overcast
7:08 AM 33.8 °F 29.6 °F 30.2 °F 87% 29.85 in 0.8 mi SE 4.6 mph - 0.00 in Snow Light Snow
7:29 AM 33.8 °F - 30.2 °F 87% 29.84 in 1.5 mi Calm Calm - 0.01 in Snow Light Snow
7:34 AM 33.8 °F - 30.2 °F 87% 29.83 in 3.0 mi Calm Calm - 0.01 in Snow Light Snow
7:54 AM 33.1 °F 30.0 °F 30.0 °F 89% 29.75 in 10.0 mi East 3.5 mph - 0.02 in   Mostly Cloudy
8:54 AM 37.0 °F 33.3 °F 30.9 °F 79% 29.74 in 10.0 mi SE 4.6 mph - 0.01 in   Mostly Cloudy
9:15 AM 39.2 °F 32.0 °F 32.0 °F 75% 29.82 in 10.0 mi South 11.5 mph 20.7 mph N/A   Mostly Cloudy
9:54 AM 39.0 °F 31.8 °F 32.0 °F 76% 29.76 in 10.0 mi SE 11.5 mph - N/A   Mostly Cloudy
10:54 AM 39.9 °F 31.8 °F 32.0 °F 73% 29.74 in 9.0 mi South 15.0 mph 21.9 mph 0.00 in Rain Light Rain
11:31 AM 42.8 °F 35.8 °F 30.2 °F 61% 29.78 in 10.0 mi SSW 13.8 mph 29.9 mph 0.00 in   Overcast
11:54 AM 41.0 °F 34.7 °F 28.0 °F 60% 29.71 in 10.0 mi South 10.4 mph 23.0 mph 0.00 in   Overcast
12:08 PM 37.4 °F 26.9 °F 28.4 °F 70% 29.77 in 2.0 mi SW 20.7 mph 36.8 mph 0.00 in Rain Light Rain
12:11 PM 33.8 °F 22.2 °F 30.2 °F 87% 29.78 in 0.8 mi SW 20.7 mph 36.8 mph 0.00 in Snow Light Snow
12:15 PM 33.8 °F 22.2 °F 28.4 °F 81% 29.77 in 0.2 mi SW 20.7 mph 28.8 mph 0.00 in Fog , Snow Snow
12:20 PM 32.0 °F 21.2 °F 30.2 °F 93% 29.78 in 0.5 mi SSW 16.1 mph 28.8 mph 0.00 in Fog , Snow Snow
12:27 PM 32.0 °F 23.6 °F 30.2 °F 93% 29.78 in 1.8 mi SSW 10.4 mph - 0.00 in Snow Light Snow
12:35 PM 33.8 °F 25.8 °F 30.2 °F 87% 29.78 in 2.0 mi SSW 10.4 mph - 0.00 in Snow Light Snow
12:39 PM 33.8 °F 26.4 °F 30.2 °F 87% 29.78 in 5.0 mi South 9.2 mph - 0.00 in Snow Light Snow
12:46 PM 33.8 °F 25.3 °F 30.2 °F 87% 29.77 in 1.8 mi South 11.5 mph 17.3 mph 0.00 in Snow Light Snow
12:54 PM 33.1 °F 22.6 °F 30.9 °F 92% 29.73 in 0.2 mi SSW 16.1 mph 23.0 mph 0.01 in Snow Light Snow
12:57 PM 33.8 °F 23.2 °F 30.2 °F 87% 29.77 in 0.2 mi SSW 17.3 mph 24.2 mph 0.00 in Fog , Snow Snow
1:50 PM 32.0 °F 25.6 °F 30.2 °F 93% 29.75 in 0.8 mi SSW 6.9 mph - 0.01 in Snow Light Snow
1:54 PM 32.0 °F 25.6 °F 30.9 °F 96% 29.69 in 0.8 mi South 6.9 mph - 0.01 in Snow Light Snow
1:58 PM 33.8 °F 28.6 °F 30.2 °F 87% 29.74 in 1.0 mi South 5.8 mph - 0.00 in Snow Light Snow
2:02 PM 33.8 °F 27.7 °F 30.2 °F 87% 29.73 in 2.5 mi South 6.9 mph - 0.01 in Snow Light Snow
2:07 PM 33.8 °F 27.0 °F 30.2 °F 87% 29.73 in 9.0 mi South 8.1 mph - 0.02 in   Overcast
2:34 PM 33.8 °F 25.3 °F 30.2 °F 87% 29.72 in 10.0 mi South 11.5 mph 20.7 mph 0.07 in   Overcast
2:54 PM 34.0 °F 28.0 °F 30.9 °F 89% 29.64 in 9.0 mi South 6.9 mph - 0.09 in   Overcast
3:00 PM 33.8 °F 27.7 °F 30.2 °F 87% 29.71 in 10.0 mi SSW 6.9 mph - 0.01 in   Overcast
3:20 PM 33.8 °F 24.3 °F 30.2 °F 87% 29.72 in 1.8 mi SW 13.8 mph 21.9 mph 0.01 in Snow Light Snow
3:23 PM 32.0 °F 23.0 °F 28.4 °F 87% 29.72 in 0.8 mi SW 11.5 mph 21.9 mph 0.01 in Snow Light Snow
3:24 PM 32.0 °F 24.2 °F 28.4 °F 87% 29.72 in 0.2 mi SW 9.2 mph 21.9 mph 0.01 in Fog , Snow Light Snow
3:41 PM 32.0 °F 22.5 °F 28.4 °F 87% 29.72 in 3.0 mi SSW 12.7 mph - 0.01 in Snow Light Snow
3:51 PM 32.0 °F 23.6 °F 28.4 °F 87% 29.71 in 9.0 mi SSW 10.4 mph 20.7 mph 0.01 in   Overcast
3:54 PM 32.0 °F 23.6 °F 28.0 °F 85% 29.67 in 9.0 mi SSW 10.4 mph - 0.01 in   Overcast
4:05 PM 32.0 °F 24.8 °F 28.4 °F 87% 29.71 in 6.0 mi South 8.1 mph - 0.00 in Snow Light Snow
4:22 PM 32.0 °F 23.6 °F 28.4 °F 87% 29.71 in 2.5 mi South 10.4 mph - 0.00 in Snow Light Snow
4:25 PM 32.0 °F 23.6 °F 28.4 °F 87% 29.72 in 1.2 mi South 10.4 mph - 0.00 in Snow Light Snow
4:30 PM 30.2 °F 17.8 °F 28.4 °F 93% 29.72 in 0.2 mi WSW 19.6 mph 33.4 mph 0.00 in Fog , Snow Snow
4:46 PM 28.4 °F 16.6 °F 24.8 °F 86% 29.73 in 0.2 mi WSW 16.1 mph 28.8 mph 0.00 in Fog , Snow Snow
4:54 PM 28.0 °F 14.9 °F 25.0 °F 88% 29.72 in 0.2 mi WSW 19.6 mph 28.8 mph 0.00 in Fog , Snow Snow
5:36 PM 26.6 °F 16.2 °F 24.8 °F 93% 29.76 in 0.5 mi SSW 11.5 mph - 0.00 in Fog , Snow Light Snow
5:41 PM 26.6 °F 14.7 °F 24.8 °F 93% 29.77 in 1.8 mi SW 15.0 mph - 0.00 in Snow Light Snow
5:44 PM 26.6 °F 16.8 °F 23.0 °F 86% 29.77 in 3.0 mi SW 10.4 mph 19.6 mph 0.00 in Snow Light Snow
5:54 PM 27.0 °F 20.5 °F 24.1 °F 89% 29.76 in 7.0 mi SSW 5.8 mph - 0.00 in Snow Light Snow
6:54 PM 27.0 °F - 21.9 °F 81% 29.72 in 10.0 mi Calm Calm - 0.00 in   Overcast
7:31 PM 26.6 °F 16.8 °F 23.0 °F 86% 29.76 in 10.0 mi SSW 10.4 mph - N/A   Overcast
7:52 PM 26.6 °F 13.8 °F 23.0 °F 86% 29.77 in 9.0 mi SSW 17.3 mph 23.0 mph 0.00 in   Overcast
7:54 PM 27.0 °F 14.3 °F 23.0 °F 85% 29.76 in 8.0 mi SSW 17.3 mph 23.0 mph 0.00 in   Overcast
7:58 PM 26.6 °F 13.8 °F 23.0 °F 86% 29.77 in 1.8 mi SSW 17.3 mph - 0.00 in Snow Light Snow
8:02 PM 26.6 °F 13.1 °F 23.0 °F 86% 29.76 in 0.8 mi SW 19.6 mph 25.3 mph 0.00 in Snow Light Snow
8:12 PM 26.6 °F 14.3 °F 24.8 °F 93% 29.77 in 2.0 mi SW 16.1 mph 25.3 mph 0.00 in Snow Light Snow
8:19 PM 26.6 °F 13.4 °F 24.8 °F 93% 29.77 in 9.0 mi SW 18.4 mph 27.6 mph 0.00 in   Overcast
8:44 PM 26.6 °F 13.4 °F 23.0 °F 86% 29.77 in 10.0 mi SW 18.4 mph 25.3 mph 0.00 in   Overcast
8:54 PM 26.1 °F 15.6 °F 24.1 °F 92% 29.75 in 9.0 mi SW 11.5 mph - 0.00 in   Overcast
9:54 PM 26.1 °F 15.0 °F 23.0 °F 88% 29.77 in 10.0 mi SW 12.7 mph - N/A   Overcast
10:54 PM 26.1 °F 15.6 °F 23.0 °F 88% 29.78 in 10.0 mi SW 11.5 mph - N/A   Overcast
11:54 PM 26.1 °F 15.6 °F 23.0 °F 88% 29.78 in 10.0 mi SW 11.5 mph - N/A   Overcast